Fort Campbell, KY

10:28 AM CST on December 08, 2016 (GMT -0600)
Campbell Army Air Field

Weather History for KHOP - November, 2012

Change the Weather History Date:

Friday, November 9, 2012

  Actual Average Record
Temperature  
Mean Temperature 52 °F -  
Max Temperature 68 °F 58 °F 78 °F (2006)
Min Temperature 35 °F 38 °F 29 °F (2008)
Degree Days  
Heating Degree Days 14    
Growing Degree Days 2 (Base 50)    
Moisture  
Dew Point 39 °F    
Average Humidity 64    
Maximum Humidity 100    
Minimum Humidity 33    
Precipitation  
Precipitation 0.00 in - - ()
Sea Level Pressure  
Sea Level Pressure 30.19 in    
Wind  
Wind Speed 5 mph (South)    
Max Wind Speed 13 mph    
Max Gust Speed -    
Visibility 9 miles    
Events      
Averages and records for this station are not official NWS values.
T = Trace of Precipitation, MM = Missing Value Source: NWS Daily Summary

Daily Weather History Graph

Daily Weather History Graph

Search for Another Location

Airport or City:

Trip Planner

Search our weather history database for the weather conditions in past years. The results will help you decide how hot, cold, wet, or windy it might be!

Date:

Astronomy

Nov. 09, 2012 Rise Set
Actual Time 6:22 AM CST 4:45 PM CST
Civil Twilight 5:54 AM CST 5:12 PM CST
Nautical Twilight 5:23 AM CST 5:43 PM CST
Astronomical Twilight 4:53 AM CST 6:13 PM CST
Moon 1:27 AM CST (11/9) 1:51 PM CST (11/9)
Length of Visible Light 11h 17m
Length of Day
10h 22m
Waning Crescent, 23% of the Moon is Illuminated
Nov 9
Waning Crescent
Nov 13
New
Nov 20
First Quarter
Nov 28
Full
Dec 6
Last Quarter

Hourly Weather History & Observations

Time (CST) Temp. Windchill Dew Point Humidity Pressure Visibility Wind Dir Wind Speed Gust Speed Precip Events Conditions
12:55 AM 38.5 °F 36.1 °F 38.3 °F 99% 30.19 in 10.0 mi ESE 3.5 mph - N/A   Clear
1:55 AM 38.7 °F - 38.5 °F 99% 30.19 in 10.0 mi Calm Calm - N/A   Clear
3:55 AM 36.9 °F - 36.9 °F 100% 30.22 in 7.0 mi Calm Calm - N/A   Clear
4:55 AM 35.8 °F - 35.8 °F 100% 30.25 in 6.0 mi Calm Calm - N/A   Clear
5:55 AM 35.1 °F 31.0 °F 35.1 °F 100% 30.25 in 6.0 mi SE 4.6 mph - N/A   Clear
6:55 AM 37.0 °F 34.5 °F 37.0 °F 100% 30.25 in 8.0 mi Variable 3.5 mph - N/A   Clear
7:55 AM 43.9 °F 41.3 °F 41.2 °F 90% 30.26 in 10.0 mi SSE 4.6 mph - N/A   Clear
8:55 AM 49.1 °F - 42.6 °F 78% 30.26 in 10.0 mi South 6.9 mph - N/A   Clear
9:55 AM 55.9 °F - 41.4 °F 58% 30.25 in 10.0 mi SSW 12.7 mph - N/A   Clear
10:55 AM 60.3 °F - 41.9 °F 51% 30.24 in 10.0 mi South 9.2 mph - N/A   Clear
11:55 AM 63.9 °F - 40.3 °F 42% 30.20 in 10.0 mi South 10.4 mph - N/A   Clear
12:55 PM 66.9 °F - 39.2 °F 36% 30.17 in 10.0 mi SSW 10.4 mph - N/A   Clear
1:55 PM 67.8 °F - 37.4 °F 33% 30.14 in 10.0 mi SSE 10.4 mph - N/A   Clear
2:55 PM 68.4 °F - 37.9 °F 33% 30.14 in 10.0 mi South 11.5 mph - N/A   Clear
3:55 PM 66.7 °F - 39.0 °F 36% 30.13 in 10.0 mi South 9.2 mph - N/A   Clear
4:55 PM 62.6 °F - 39.6 °F 43% 30.13 in 10.0 mi South 6.9 mph - N/A   Clear
5:55 PM 60.3 °F - 39.7 °F 47% 30.14 in 10.0 mi South 6.9 mph - N/A   Clear
6:55 PM 59.0 °F - 40.1 °F 50% 30.14 in 10.0 mi South 5.8 mph - N/A   Clear
7:55 PM 57.6 °F - 39.9 °F 52% 30.14 in 10.0 mi South 5.8 mph - N/A   Clear
8:55 PM 55.8 °F - 39.7 °F 55% 30.15 in 10.0 mi South 4.6 mph - N/A   Clear
9:55 PM 55.9 °F - 39.7 °F 55% 30.15 in 10.0 mi South 8.1 mph - N/A   Clear
10:55 PM 52.9 °F - 39.9 °F 61% 30.14 in 10.0 mi South 8.1 mph - N/A   Clear
11:55 PM 51.6 °F - 39.6 °F 63% 30.15 in 10.0 mi South 8.1 mph - N/A   Clear